Wind_Speed
98 93 92 96 98 93 91 88 92 94 85 80 75 79 73 69 64 62 57 54 55 55 56 53 50 50 55 58 59 59 58 57 56 54 53 54 55 55 57 58 58 58 59 62
101 92 89 91 94 97 96 92 86 90 87 82 82 77 78 76 69 68 69 66 65 62 64 62 59 56 54 55 60 61 61 62 62 61 60 58 58 59 60 60 61 62 63 65
104 98 96 94 92 94 99 99 95 90 90 87 84 81 80 79 76 75 75 70 68 72 71 70 61 58 59 61 61 57 61 63 64 65 65 66 65 65 65 65 65 66 66 67
107 103 98 95 94 94 90 93 99 102 97 93 87 80 76 76 79 82 82 82 80 77 74 76 69 69 73 72 64 67 64 63 64 66 67 67 69 71 71 71 71 72 72 72
108 105 105 102 98 96 92 94 95 96 102 101 97 92 83 82 77 83 86 87 85 82 81 79 75 74 73 76 76 73 72 69 67 66 68 70 71 74 74 76 77 77 77 78
109 107 105 105 104 104 101 98 96 95 97 100 96 100 90 88 87 89 92 91 91 89 88 89 86 79 75 74 73 73 73 74 75 75 75 74 74 73 75 77 79 81 83 83
107 109 108 108 107 105 104 102 102 103 101 97 95 98 84 91 94 95 96 96 93 95 94 91 90 87 85 84 83 81 80 79 78 78 79 79 79 80 80 81 81 82 83 84
109 109 108 108 110 109 109 107 110 110 105 99 99 94 84 86 91 95 100 99 99 99 97 95 93 90 89 90 91 91 90 88 85 85 86 87 88 89 90 91 92 90 90 91
110 110 110 111 113 113 112 109 110 110 106 103 97 88 85 87 89 93 95 97 98 98 99 97 96 97 98 97 96 93 91 93 93 92 93 94 94 95 94 92 93 95 97 99
115 113 112 111 113 114 114 112 111 110 109 106 99 93 87 90 92 93 96 99 99 99 98 97 97 97 97 100 100 98 96 94 94 92 92 91 92 94 95 96 96 96 98 100
118 118 117 115 112 112 115 114 115 115 113 109 103 96 93 93 92 92 92 94 96 96 98 99 98 98 100 99 98 97 98 98 98 98 98 98 95 93 95 97 98 99 99 101
120 119 118 118 117 118 116 113 117 115 112 113 108 96 95 94 93 94 96 98 101 99 97 97 96 96 98 99 101 101 102 102 101 100 99 98 99 98 97 97 98 100 101 102
122 120 118 119 120 120 120 119 119 117 116 112 112 96 95 97 97 98 101 101 100 100 100 100 100 99 98 98 98 98 97 98 98 98 100 101 101 102 103 104 105 106 106 106
124 124 121 123 124 123 123 123 122 124 122 111 111 100 100 102 104 105 106 106 107 108 111 109 103 102 102 102 102 102 102 102 103 104 106 107 109 110 110 111 112 113 114 114
129 126 127 129 127 125 123 123 123 122 120 124 115 114 105 110 112 113 112 112 114 115 114 114 114 113 111 111 110 108 109 109 110 110 111 114 115 116 117 117 119 119 119 119
122 124 132 128 128 129 126 121 121 122 119 121 115 117 112 113 117 116 117 122 122 120 119 120 120 118 115 117 115 116 116 116 117 118 119 121 121 121 121 122 122 122 124 125
121 121 121 123 132 133 128 121 123 123 121 122 120 115 117 117 120 119 122 122 121 121 123 125 123 122 121 121 121 122 124 125 125 125 127 128 127 127 126 126 127 129 130 131
119 119 122 124 124 126 126 126 122 123 124 126 126 121 122 124 125 126 124 124 124 128 128 125 123 122 121 120 124 126 127 128 129 129 130 131 131 131 132 133 134 136 138 139
117 120 121 121 123 123 118 117 121 124 124 126 126 126 126 122 124 120 125 130 131 133 132 129 128 128 128 129 129 130 132 133 134 135 135 136 136 136 138 138 139 139 140 141
111 115 115 115 120 121 114 118 122 127 127 122 130 130 128 128 125 119 125 125 127 130 132 133 134 132 132 133 133 134 135 137 139 140 140 140 140 139 139 140 142 141 139 137
82 86 92 101 110 110 108 116 122 125 125 123 126 129 130 130 130 125 129 130 133 133 134 134 133 132 131 131 134 135 137 138 140 141 141 142 142 141 140 142 141 142 143 142
60 62 68 71 75 75 83 93 104 113 121 125 128 132 135 134 132 131 130 130 131 134 136 136 136 137 137 137 137 139 140 141 142 142 140 141 141 142 142 144 145 146 146 147
42 46 51 55 59 67 72 81 89 98 100 103 109 114 122 125 128 131 131 132 133 135 137 139 139 139 140 140 141 141 143 146 147 146 146 145 145 145 146 145 146 148 148 146
21 28 35 41 45 44 54 61 68 78 86 92 98 100 104 107 108 109 111 116 121 125 130 132 134 136 139 142 142 144 143 144 144 145 145 144 144 143 143 144 144 144 146 149
11 11 14 19 23 30 36 43 53 60 64 69 75 81 88 93 97 101 104 107 109 110 113 116 118 120 124 128 130 131 133 135 135 137 138 139 140 140 140 141 143 145 147 147
13 15 16 18 22 26 29 32 37 42 45 48 52 59 65 71 75 80 87 90 94 102 107 111 114 117 120 121 122 123 126 126 125 125 125 126 128 129 130 132 135 135 138 138
Wind_Direction
229 232 235 236 238 237 238 243 247 247 243 244 244 243 242 244 247 245 242 247 251 256 254 252 254 257 260 261 262 263 264 265 266 267 269 271 271 270 269 270 270 270 270 270
229 228 231 234 236 238 241 239 242 244 245 241 240 242 242 242 244 247 248 247 246 249 255 253 253 256 259 263 264 265 265 265 265 267 267 268 271 272 272 272 271 271 271 272
228 229 231 232 234 238 239 241 241 240 242 243 244 242 242 243 246 244 248 252 252 251 251 252 254 256 259 261 263 264 266 266 266 268 268 269 270 271 272 273 273 273 273 273
230 229 231 233 234 236 238 241 242 242 241 242 242 239 241 243 246 249 251 250 252 255 253 251 250 260 264 262 259 262 262 266 269 269 268 269 270 271 272 274 274 274 275 275
232 233 233 233 232 236 237 238 240 242 243 242 242 243 238 245 247 246 248 249 252 254 254 254 258 262 263 264 263 261 260 260 261 264 270 274 273 272 273 274 275 275 276 277
231 233 236 238 237 237 235 237 241 242 242 242 242 244 239 243 247 246 248 248 250 254 253 256 259 260 258 257 259 262 263 266 267 265 264 266 270 271 273 275 276 277 278 279
232 233 234 236 239 242 242 243 243 241 241 240 241 242 239 242 244 250 253 251 251 252 254 255 256 257 257 258 260 263 264 264 264 265 268 270 272 273 274 274 274 274 275 276
234 234 236 237 239 241 240 242 245 246 247 245 242 242 241 241 243 248 251 255 258 256 257 256 255 257 258 259 260 261 263 264 265 267 269 270 271 273 274 274 275 276 276 276
236 235 236 238 239 241 242 244 245 247 248 250 250 251 249 249 248 247 248 252 256 258 257 259 260 260 259 260 261 263 265 266 267 268 269 272 273 274 274 275 275 276 275 275
237 238 238 239 240 242 244 246 248 249 249 251 252 252 251 253 255 257 257 256 258 261 262 261 260 260 261 261 261 263 266 268 268 268 270 273 275 274 274 276 277 276 278 278
237 239 239 240 242 243 244 246 249 251 251 252 250 249 250 253 256 258 259 260 262 263 264 264 264 265 264 265 266 266 268 269 269 270 272 274 274 272 273 274 275 275 276 276
238 239 240 243 243 244 246 247 249 251 253 253 253 254 257 259 259 258 258 259 260 261 263 264 266 267 268 268 268 269 271 271 272 274 274 274 273 273 273 274 275 276 277 278
238 239 241 241 244 246 248 248 251 252 253 253 254 253 255 257 260 264 265 265 264 261 261 260 261 263 265 266 266 266 268 268 269 271 272 273 273 274 275 275 276 277 278 278
238 241 241 243 243 245 246 248 250 251 253 256 256 257 258 260 261 261 261 262 264 266 267 267 267 268 268 269 269 270 270 271 272 273 274 275 276 277 279 279 279 280 281 281
239 241 242 244 245 246 247 249 251 254 255 255 255 257 258 260 261 262 264 265 265 265 267 269 270 271 272 272 273 273 274 274 274 275 275 275 276 277 278 279 279 280 281 281
239 242 243 246 247 248 248 250 253 254 256 258 257 256 259 259 261 263 264 265 265 267 267 267 268 269 270 271 272 272 273 273 274 274 275 276 276 277 277 278 279 279 280 280
242 244 245 246 247 248 249 251 252 255 257 258 259 260 261 261 260 261 261 262 265 266 265 266 267 268 269 271 272 271 272 272 272 273 273 274 276 276 276 277 277 278 279 280
246 245 246 248 250 251 250 251 253 255 256 258 260 261 260 260 260 261 262 263 264 264 265 265 266 267 268 269 270 270 271 271 272 272 273 273 274 275 276 277 278 279 279 280
247 247 247 248 250 252 254 256 255 255 254 256 259 258 258 260 260 262 263 262 263 265 265 265 266 266 267 268 268 269 270 271 272 273 273 275 276 276 276 278 278 278 278 279
248 249 250 251 253 254 254 256 258 258 259 260 260 261 260 260 259 258 259 262 262 263 264 265 266 266 266 267 268 268 268 270 270 271 272 273 274 275 276 276 277 278 278 279
248 250 251 253 254 256 257 257 257 258 258 258 258 260 261 261 261 259 259 259 261 262 263 264 265 266 267 267 267 268 269 270 271 271 272 274 276 278 279 278 278 278 280 280
252 252 252 252 254 253 250 250 253 255 257 257 256 257 258 258 259 260 259 259 260 262 263 264 265 265 265 266 267 268 269 270 270 271 272 274 274 274 275 275 276 278 278 279
251 250 251 253 255 252 249 249 251 254 256 258 257 257 260 260 260 260 261 261 261 261 262 263 263 264 265 266 267 268 269 269 270 271 271 272 273 274 275 276 276 277 278 280
260 257 255 255 254 260 263 258 255 258 258 258 259 260 261 263 264 263 262 262 262 262 262 262 263 264 265 266 266 266 267 268 268 269 270 271 272 272 274 275 275 277 277 278
352 332 305 289 279 275 273 270 267 266 266 266 266 267 266 266 266 266 266 265 264 264 264 265 264 264 264 265 266 267 268 268 269 269 270 271 272 273 274 274 275 276 276 278
345 338 323 311 306 303 294 285 280 278 277 273 272 273 269 268 270 270 269 267 266 266 264 263 265 265 265 266 267 269 269 270 271 271 272 273 273 274 274 274 275 277 277 279
Height
10641 10654 10669 10673 10677 10684 10689 10696 10707 10717 10727 10737 10748 10756 10757 10763 10770 10773 10775 10776 10780 10781 10780 10785 10786 10789 10790 10792 10794 10795 10797 10801 10802 10804 10803 10803 10803 10803 10803 10803 10804 10804 10804 10802
10622 10644 10648 10652 10660 10669 10678 10686 10693 10700 10709 10719 10731 10743 10748 10754 10758 10759 10761 10766 10766 10768 10768 10770 10776 10780 10780 10781 10781 10783 10786 10788 10789 10791 10791 10792 10791 10789 10790 10790 10790 10790 10790 10789
10604 10622 10628 10637 10646 10655 10664 10672 10677 10684 10694 10702 10715 10731 10737 10739 10746 10748 10750 10750 10752 10754 10755 10758 10765 10769 10769 10768 10770 10773 10774 10774 10776 10777 10778 10778 10777 10776 10776 10776 10775 10776 10775 10774
10591 10606 10611 10623 10634 10641 10648 10654 10659 10666 10675 10688 10701 10717 10725 10729 10735 10738 10735 10734 10737 10740 10743 10746 10748 10753 10756 10757 10759 10760 10762 10763 10763 10764 10763 10764 10763 10761 10759 10759 10759 10759 10759 10758
10581 10591 10596 10602 10613 10615 10631 10635 10642 10649 10656 10670 10686 10692 10721 10718 10722 10719 10716 10719 10723 10725 10728 10731 10735 10740 10742 10742 10745 10745 10745 10747 10749 10750 10748 10747 10749 10747 10745 10743 10742 10741 10741 10740
10564 10578 10586 10591 10597 10599 10609 10616 10622 10629 10638 10651 10666 10670 10706 10708 10704 10696 10697 10703 10706 10709 10714 10717 10722 10725 10727 10727 10727 10729 10732 10733 10733 10733 10733 10729 10729 10730 10729 10727 10725 10724 10723 10722
10549 10558 10566 10573 10578 10583 10595 10602 10602 10606 10614 10636 10640 10647 10692 10687 10685 10679 10677 10682 10689 10693 10697 10701 10704 10707 10710 10713 10714 10714 10715 10716 10717 10717 10715 10714 10714 10713 10712 10711 10709 10707 10705 10703
10528 10543 10551 10556 10561 10567 10570 10577 10582 10587 10599 10614 10620 10641 10667 10668 10667 10664 10662 10663 10665 10671 10676 10680 10685 10689 10692 10694 10696 10696 10697 10698 10698 10699 10699 10697 10696 10694 10693 10692 10690 10689 10687 10685
10508 10520 10530 10538 10540 10546 10554 10566 10567 10572 10584 10595 10612 10637 10648 10650 10651 10649 10649 10645 10643 10647 10653 10658 10665 10670 10673 10673 10674 10675 10677 10679 10680 10680 10679 10677 10675 10673 10672 10670 10669 10668 10667 10664
10490 10502 10511 10518 10524 10533 10543 10546 10551 10559 10570 10580 10599 10615 10630 10627 10632 10632 10630 10629 10629 10628 10633 10640 10645 10647 10649 10650 10652 10655 10657 10659 10659 10657 10656 10655 10654 10652 10650 10648 10646 10644 10642 10639
10476 10482 10492 10500 10513 10516 10519 10528 10532 10537 10544 10560 10577 10596 10608 10611 10614 10614 10612 10608 10609 10609 10612 10615 10621 10625 10627 10629 10631 10633 10634 10633 10632 10633 10632 10631 10630 10628 10626 10624 10623 10620 10618 10615
10457 10466 10478 10486 10492 10494 10501 10511 10512 10522 10537 10536 10551 10582 10586 10587 10590 10591 10589 10587 10588 10589 10594 10595 10597 10599 10603 10605 10606 10608 10608 10608 10608 10608 10607 10606 10604 10602 10601 10600 10599 10596 10593 10590
10436 10449 10459 10467 10472 10480 10488 10494 10495 10501 10508 10520 10528 10572 10568 10567 10570 10568 10563 10565 10566 10569 10572 10572 10575 10577 10578 10580 10581 10583 10584 10584 10585 10584 10582 10579 10577 10577 10576 10574 10572 10569 10567 10564
10421 10426 10439 10445 10447 10455 10463 10469 10474 10475 10483 10515 10514 10551 10556 10553 10549 10544 10543 10543 10543 10543 10537 10543 10551 10554 10555 10557 10557 10560 10561 10561 10560 10557 10554 10551 10549 10548 10547 10546 10543 10540 10538 10535
10402 10408 10413 10420 10430 10438 10446 10452 10458 10467 10487 10480 10511 10510 10536 10523 10523 10520 10520 10522 10519 10518 10523 10526 10527 10529 10532 10530 10531 10534 10533 10533 10533 10531 10527 10522 10521 10521 10519 10516 10513 10510 10507 10504
10381 10389 10394 10406 10413 10418 10425 10441 10449 10453 10463 10460 10481 10484 10502 10502 10496 10503 10502 10487 10490 10500 10501 10496 10498 10503 10510 10506 10511 10510 10507 10505 10505 10502 10496 10491 10491 10491 10488 10485 10483 10479 10474 10472
10368 10374 10379 10385 10389 10392 10409 10430 10426 10432 10441 10440 10446 10468 10469 10473 10467 10471 10464 10461 10465 10469 10466 10465 10474 10478 10483 10483 10482 10479 10475 10473 10470 10470 10465 10461 10460 10459 10456 10453 10450 10445 10441 10439
10344 10353 10358 10363 10366 10369 10397 10404 10412 10409 10414 10412 10418 10436 10436 10435 10431 10441 10443 10437 10438 10424 10427 10437 10445 10449 10454 10457 10447 10443 10440 10438 10436 10435 10433 10429 10427 10427 10423 10418 10414 10408 10406 10403
10318 10322 10332 10341 10347 10355 10379 10386 10377 10375 10387 10391 10393 10391 10391 10398 10401 10430 10410 10399 10407 10399 10398 10406 10412 10417 10418 10415 10413 10413 10408 10403 10403 10400 10399 10396 10393 10390 10386 10384 10378 10374 10369 10366
10295 10306 10315 10322 10319 10329 10363 10358 10353 10343 10352 10367 10350 10354 10359 10359 10370 10391 10365 10370 10369 10367 10366 10367 10371 10382 10384 10379 10380 10378 10374 10371 10365 10362 10365 10363 10359 10356 10352 10348 10343 10337 10333 10329
10274 10284 10293 10296 10299 10322 10345 10328 10314 10309 10311 10320 10317 10313 10315 10321 10328 10348 10341 10337 10332 10334 10334 10333 10336 10341 10344 10341 10337 10339 10338 10336 10331 10331 10332 10330 10325 10321 10319 10311 10307 10302 10298 10292
10256 10265 10269 10274 10280 10295 10290 10285 10277 10270 10270 10282 10284 10279 10272 10279 10290 10295 10300 10303 10305 10300 10296 10299 10301 10302 10303 10303 10303 10301 10299 10296 10293 10294 10296 10292 10289 10287 10281 10274 10271 10267 10261 10253
10242 10247 10249 10254 10255 10255 10260 10259 10253 10245 10250 10254 10252 10255 10246 10249 10254 10259 10265 10264 10267 10269 10268 10265 10266 10266 10264 10263 10262 10264 10262 10259 10257 10256 10254 10252 10249 10246 10243 10240 10235 10226 10223 10220
10233 10236 10241 10241 10238 10240 10241 10241 10237 10230 10229 10229 10227 10231 10225 10222 10225 10228 10230 10231 10229 10230 10229 10231 10232 10232 10229 10223 10223 10221 10222 10222 10221 10218 10216 10214 10210 10208 10205 10202 10198 10192 10185 10177
10231 10231 10231 10230 10230 10232 10229 10225 10220 10217 10215 10212 10208 10206 10202 10200 10199 10197 10200 10198 10198 10196 10194 10193 10195 10195 10193 10188 10188 10187 10185 10183 10183 10181 10180 10177 10174 10172 10169 10163 10157 10152 10146 10143
10230 10231 10231 10231 10229 10225 10221 10216 10211 10205 10200 10196 10192 10185 10183 10180 10175 10175 10170 10166 10163 10161 10160 10160 10161 10162 10160 10158 10156 10154 10150 10147 10147 10147 10145 10142 10138 10134 10132 10125 10120 10118 10110 10107